Location: Recife
(8.0585°S, 34.8848°W)
Time: 11:57:55
(UTC-03:00)

Vanguard 2 Rocket - Pass Details

Date: 17 April 2026
Orbit: 553 x 3286 km, 32.9° (Epoch: 7 May)

Event Time Altitude Azimuth Distance (km) Brightness Sun altitude
Rises 07:16:09 0° 248° (WSW) 4,327 9.8 26.7°
Reaches altitude 10° 07:19:30 10° 233° (SW) 3,739 9.6 27.5°
Maximum altitude 07:27:23 24° 183° (S) 3,583 9.9 29.4°
Drops below altitude 10° 07:38:48 10° 136° (SE) 5,540 11.3 32.1°
Sets 07:45:28 0° 123° (ESE) 6,942 11.9 33.7°
